Location: Tr�vern
(48.0333°N, 4.6000°W)
Time: 17:58:48
(UTC+00:00)

CZ-4B R/B - Pass Details

Date: 14 July 2020
Orbit: 390 x 465 km, 97.6° (Epoch: 12 August)

Event Time Altitude Azimuth Distance (km) Brightness Sun altitude
Rises 03:43:31 0° 140° (SE) 2,489 5.1 -7.3°
Reaches altitude 10° 03:45:44 10° 128° (SE) 1,621 4.3 -7.1°
Maximum altitude 03:48:44 28° 68° (ENE) 915 3.9 -6.7°
Drops below altitude 10° 03:51:46 10° 9° (N) 1,629 5.1 -6.3°
Sets 03:53:59 0° 357° (N) 2,504 5.8 -6.0°
